Shawbury, United Kingdom

11:27 PM GMT on November 24, 2017 (GMT +0000)
Shawbury Air Base

Weather History for EGOS - November, 2013

Change the Weather History Date:

Friday, November 15, 2013

  Actual Average Record
Temperature  
Mean Temperature 39 °F -  
Max Temperature 48 °F 45 °F 59 °F (1997)
Min Temperature 30 °F 35 °F 26 °F (2007)
Degree Days  
Heating Degree Days 26    
Moisture  
Dew Point 39 °F    
Average Humidity 87    
Maximum Humidity 100    
Minimum Humidity 71    
Precipitation  
Precipitation 0.04 in - - ()
Sea Level Pressure  
Sea Level Pressure 30.52 in    
Wind  
Wind Speed 3 mph ()    
Max Wind Speed 7 mph    
Max Gust Speed -    
Visibility 7.4 miles    
Events      
Averages and records for this station are not official NWS values.
T = Trace of Precipitation, MM = Missing Value Source: Averaged Metar Reports

Daily Weather History Graph

Daily Weather History Graph

Search for Another Location

Airport or City:

Trip Planner

Search our weather history database for the weather conditions in past years. The results will help you decide how hot, cold, wet, or windy it might be!

Date:

Astronomy

Nov. 15, 2013 Rise Set
Actual Time 7:33 AM GMT 4:16 PM GMT
Civil Twilight 6:55 AM GMT 4:54 PM GMT
Nautical Twilight 6:13 AM GMT 5:36 PM GMT
Astronomical Twilight 5:32 AM GMT 6:17 PM GMT
Moon 3:17 PM GMT (11/15) 4:59 AM GMT (11/15)
Length of Visible Light 9h 59m
Length of Day
8h 42m
Waxing Gibbous, 95% of the Moon is Illuminated
Nov 15
Waxing Gibbous
Nov 17
Full
Nov 25
Last Quarter
Dec 3
New
Dec 9
First Quarter

Hourly Weather History & Observations

Time (GMT) Temp. Windchill Dew Point Humidity Pressure Visibility Wind Dir Wind Speed Gust Speed Precip Events Conditions
12:00 AM 37 °F - 34 °F 83% 30.51 in 9 mi NNW 5.8 mph - -  
12:50 AM 35.6 °F - 33.8 °F 93% 30.51 in 6.2 mi North 2.3 mph - N/A   Scattered Clouds
1:50 AM 35.6 °F - 33.8 °F 93% 30.51 in 6.2 mi ENE 1.2 mph - N/A   Partly Cloudy
2:50 AM 32.0 °F - 30.2 °F 93% 30.51 in 6.2 mi West 2.3 mph - N/A   Unknown
3:00 AM 32 °F - 30 °F 90% 30.53 in 7 mi West 2.3 mph - -  
3:50 AM 33.8 °F - 33.8 °F 100% 30.51 in 6.2 mi West 2.3 mph - N/A   Unknown
4:50 AM 37.4 °F - 35.6 °F 93% 30.51 in 6.2 mi South 1.2 mph - N/A   Mostly Cloudy
5:50 AM 37.4 °F - 35.6 °F 93% 30.51 in 6.2 mi SSW 1.2 mph - N/A   Overcast
6:00 AM 37 °F - 36 °F 92% 30.53 in 11 mi SSW 1.2 mph - -  
6:50 AM 37.4 °F - 35.6 °F 93% 30.51 in 6.2 mi SW 2.3 mph - N/A   Mostly Cloudy
7:50 AM 39.2 °F - 37.4 °F 93% 30.54 in 6.2 mi South 1.2 mph - N/A   Mostly Cloudy
8:33 AM 39.2 °F - 37.4 °F 93% 30.54 in 6.2 mi SW 2.3 mph - N/A   Mostly Cloudy
8:50 AM 39.2 °F - 37.4 °F 93% 30.54 in 6.2 mi South 1.2 mph - N/A   Mostly Cloudy
9:00 AM 40 °F - 38 °F 90% 30.56 in 9 mi South 1.2 mph - -   Mostly Cloudy
9:50 AM 42.8 °F - 39.2 °F 87% 30.54 in 6.2 mi SW 1.2 mph - N/A   Mostly Cloudy
10:50 AM 46.4 °F 44.3 °F 42.8 °F 87% 30.54 in 6.2 mi West 4.6 mph - N/A   Mostly Cloudy
11:50 AM 48.2 °F - 41.0 °F 76% 30.54 in 6.2 mi West 5.8 mph - N/A   Mostly Cloudy
12:00 PM 47 °F - 42 °F 75% 30.56 in 16 mi West 5.8 mph - -   Mostly Cloudy
12:50 PM 48.2 °F - 42.8 °F 82% 30.51 in 6.2 mi West 5.8 mph - N/A   Mostly Cloudy
1:50 PM 48.2 °F - 41.0 °F 76% 30.51 in 6.2 mi West 4.6 mph - N/A   Mostly Cloudy
2:50 PM 48.2 °F - 42.8 °F 82% 30.51 in 6.2 mi WSW 5.8 mph - N/A   Mostly Cloudy
3:00 PM 49 °F - 43 °F 71% 30.52 in 17 mi WSW 5.8 mph - -   Mostly Cloudy
3:50 PM 48.2 °F - 42.8 °F 82% 30.48 in 6.2 mi West 5.8 mph - N/A   Mostly Cloudy
4:50 PM 46.4 °F 43.5 °F 42.8 °F 87% 30.48 in 6.2 mi West 5.8 mph - N/A   Mostly Cloudy
5:50 PM 46.4 °F 43.5 °F 42.8 °F 87% 30.51 in 6.2 mi WSW 5.8 mph - N/A   Overcast
6:00 PM 46 °F - 43 °F 84% 30.53 in 10 mi WSW 5.8 mph - -   Overcast
6:50 PM 46.4 °F 42.9 °F 42.8 °F 87% 30.51 in 6.2 mi WSW 6.9 mph - N/A   Overcast
7:50 PM 46.4 °F 43.5 °F 42.8 °F 87% 30.51 in 6.2 mi WSW 5.8 mph - N/A   Overcast
8:50 PM 46.4 °F 43.5 °F 42.8 °F 87% 30.51 in 6.2 mi WSW 5.8 mph - N/A   Overcast
9:00 PM 46 °F - 42 °F 83% 30.53 in 11 mi WSW 5.8 mph - -   Overcast
9:50 PM 46.4 °F 43.5 °F 42.8 °F 87% 30.51 in 6.2 mi West 5.8 mph - N/A   Overcast
10:50 PM 46.4 °F 44.3 °F 42.8 °F 87% 30.51 in 6.2 mi WSW 4.6 mph - N/A   Unknown
11:50 PM 44.6 °F 41.4 °F 42.8 °F 93% 30.51 in 6.2 mi WSW 5.8 mph - N/A   Overcast